Location: Windsor
(43.2292°N, 89.3015°W)
Time: 10:08:10
(UTC+00:00)

Vanguard 3 - All Passes

Search period start: 28 May 2022 00:00
Search period end: 07 June 2022 00:00
Orbit: 508 x 3258 km, 33.3° (Epoch: 27 May)

Date Brightness Start Highest point End Pass type
(mag) Time Alt. Az. Time Alt. Az. Time Alt. Az.
28 May - 05:05:16 10° SSW 05:06:57 13° SSE 05:08:38 10° SE night (unlit)
28 May - 07:14:37 10° SW 07:17:34 22° S 07:21:04 10° SE visible
28 May - 09:25:20 10° SW 09:28:32 18° S 09:32:44 10° SSE visible
29 May - 06:00:57 10° SW 06:03:36 18° S 06:06:20 10° SE night (unlit)
29 May - 08:11:24 10° SW 08:14:19 19° S 08:17:57 10° SE visible
29 May - 10:24:17 10° SSW 10:25:37 11° SSW 10:27:03 10° S daylight
30 May - 04:47:15 10° SSW 04:49:37 15° S 04:51:49 10° SE night (unlit)
30 May - 06:57:32 10° SW 07:00:17 20° S 07:03:21 10° SE visible
30 May - 09:09:00 10° SW 09:11:13 13° SSW 09:13:47 10° SSE visible
31 May - 03:33:42 10° S 03:35:31 12° SSE 03:37:09 10° SE visible
31 May - 05:43:31 10° SW 05:46:19 19° S 05:49:02 10° SE night (unlit)
31 May - 07:54:38 10° SW 07:57:01 16° S 07:59:46 10° SSE visible
01 Jun - 04:29:16 10° SW 04:32:19 18° S 04:34:57 10° SE visible
01 Jun - 06:40:23 10° SW 06:43:00 18° S 06:45:43 10° SE night (unlit)
02 Jun - 03:14:51 10° SSW 03:18:11 16° S 03:20:53 10° SE visible
02 Jun - 05:25:59 10° SW 05:29:02 20° S 05:31:49 10° SE night (unlit)
02 Jun - 07:38:00 10° SW 07:39:41 13° SSW 07:41:30 10° SSE night (unlit)
03 Jun - 02:00:35 10° SSW 02:03:49 14° SSE 02:06:29 10° SE visible
03 Jun - 04:11:15 10° SW 04:15:01 21° S 04:18:02 10° SE visible
03 Jun - 06:23:11 10° SW 06:25:41 17° S 06:28:08 10° SSE night (unlit)
04 Jun - 00:47:21 10° S 00:49:11 11° SSE 00:50:51 10° SSE daylight
04 Jun - 02:56:14 10° SW 03:00:50 21° S 03:04:15 10° ESE visible
04 Jun - 05:08:20 10° WSW 05:11:44 21° S 05:14:38 10° SE visible
05 Jun - 01:41:10 10° SSW 01:46:24 19° SSE 01:50:17 10° ESE daylight
05 Jun - 03:53:09 10° SW 03:57:43 24° S 04:01:06 10° SE visible
05 Jun - 06:05:53 10° SW 06:08:20 16° SSW 06:10:38 10° SSE night (unlit)
06 Jun - 00:26:26 10° SSW 00:31:41 16° SSE 00:35:43 10° SE daylight
06 Jun - 02:37:38 10° SW 02:43:29 25° S 02:47:30 10° ESE visible
06 Jun - 04:50:34 10° WSW 04:54:25 22° S 04:57:30 10° SE visible
06 Jun - 23:13:04 10° S 23:16:37 12° SSE 23:19:41 10° SE daylight
